This is the latest recevied weather packets stored in our database for station/object KI4BIY. If no packets are shown the sender has not sent any weather packets the latest 10 day(s).
| Time | Temp. | Humidity | Pressure | Rain* | Wind** | Luminosity | Snow |
|---|---|---|---|---|---|---|---|
| 1777710127 | 8.89° C | 84% | 1016 hPa | 0 mm | - | 0 W/m² | - |
| 1777709825 | 9.44° C | 83% | 1016 hPa | 0 mm | - | 0 W/m² | - |
| 1777709522 | 9.44° C | 83% | 1016 hPa | 0 mm | - | 0 W/m² | - |
| 1777709220 | 9.44° C | 82% | 1016.1 hPa | 0 mm | - | 0 W/m² | - |
| 1777708917 | 9.44° C | 81% | 1016 hPa | 0 mm | - | 0 W/m² | - |
| 1777708614 | 9.44° C | 80% | 1015.9 hPa | 0 mm | - | 0 W/m² | - |
| 1777708312 | 10° C | 81% | 1015.7 hPa | 0 mm | - | 0 W/m² | - |
| 1777708009 | 10° C | 81% | 1015.8 hPa | 0 mm | - | 0 W/m² | - |
| 1777707706 | 10° C | 78% | 1016.1 hPa | 0 mm | - | 0 W/m² | - |
| 1777707403 | 10° C | 80% | 1016.2 hPa | 0 mm | - | 0 W/m² | - |
| 1777707099 | 10° C | 81% | 1016.1 hPa | 0 mm | - | 0 W/m² | - |
| 1777706797 | 10° C | 80% | 1015.9 hPa | 0 mm | - | 0 W/m² | - |
| 1777706495 | 10° C | 79% | 1015.8 hPa | 0 mm | - | 0 W/m² | - |
| 1777706192 | 10° C | 80% | 1015.9 hPa | 0 mm | - | 0 W/m² | - |
| 1777705890 | 10° C | 79% | 1016.1 hPa | 0 mm | - | 0 W/m² | - |
| 1777705588 | 10° C | 77% | 1016 hPa | 0 mm | - | 0 W/m² | - |
| 1777705286 | 10.56° C | 78% | 1016.1 hPa | 0 mm | - | 0 W/m² | - |
| 1777704984 | 10.56° C | 78% | 1016.3 hPa | 0 mm | - | 0 W/m² | - |
| 1777704681 | 10.56° C | 77% | 1016.2 hPa | 0 mm | - | 0 W/m² | - |
| 1777704380 | 10.56° C | 74% | 1016.3 hPa | 0 mm | - | 0 W/m² | - |
| 1777704077 | 11.11° C | 78% | 1016.6 hPa | 0 mm | - | 0 W/m² | - |
| 1777703774 | 11.11° C | 77% | 1016.6 hPa | 0 mm | - | 0 W/m² | - |
| 1777703472 | 11.11° C | 79% | 1016.7 hPa | 0 mm | - | 0 W/m² | - |
| 1777703169 | 11.11° C | 77% | 1016.5 hPa | 0 mm | - | 0 W/m² | - |
| 1777702866 | 11.11° C | 76% | 1016.7 hPa | 0 mm | - | 0 W/m² | - |
* Rain latest hour (hover to see other rain measurements)
** Current wind speed in m/s (hover to see current wind gust speed)